Helena, Arkansas, United States (72342)
Lat: 34.53N, Lon: 90.59W
Wx Zone: ARZ058
Local Info
Past Weather Observations for Tuesday, September 20, 2016

NOTE: This archive is for the closest National Weather Service station to Helena. Information may differ from the station used for current weather conditions.

Click here for Long-term Archive

Time Weather Temperature Dewpoint Humidity Pressure Winds Precip Visibility
23:55
Clear
63°F / 17°C 63°F / 17°C 100% 30.09 in
(1019 mb)
N 3.5 mph
(N 6 kph)
- 10SM
23:35
Clear
63°F / 17°C 61°F / 16°C 94% 30.09 in
(1019 mb)
Calm - 10SM
23:15
Clear
64°F / 18°C 63°F / 17°C 94% 30.09 in
(1019 mb)
Calm - 10SM
22:55
Clear
68°F / 20°C 63°F / 17°C 83% 30.09 in
(1019 mb)
Calm - 10SM
22:35
Clear
68°F / 20°C 63°F / 17°C 83% 30.09 in
(1019 mb)
NE 4.6 mph
(NE 7 kph)
- 10SM
22:15
Clear
68°F / 20°C 63°F / 17°C 83% 30.09 in
(1019 mb)
NE 3.5 mph
(NE 6 kph)
- 10SM
21:55
Clear
68°F / 20°C 63°F / 17°C 83% 30.09 in
(1019 mb)
NE 3.5 mph
(NE 6 kph)
- 10SM
21:35
Clear
68°F / 20°C 63°F / 17°C 83% 30.09 in
(1019 mb)
Calm - 10SM
21:15
Clear
70°F / 21°C 63°F / 17°C 78% 30.09 in
(1019 mb)
NNE 4.6 mph
(NNE 7 kph)
- 10SM
20:55
Clear
68°F / 20°C 63°F / 17°C 83% 30.09 in
(1019 mb)
NNE 4.6 mph
(NNE 7 kph)
- 10SM
20:35
Clear
68°F / 20°C 63°F / 17°C 83% 30.06 in
(1018 mb)
NE 3.5 mph
(NE 6 kph)
- 10SM
20:15
Clear
70°F / 21°C 63°F / 17°C 78% 30.06 in
(1018 mb)
NE 3.5 mph
(NE 6 kph)
- 10SM
19:55
Clear
70°F / 21°C 63°F / 17°C 78% 30.06 in
(1018 mb)
NE 4.6 mph
(NE 7 kph)
- 10SM
19:35
Clear
72°F / 22°C 63°F / 17°C 73% 30.06 in
(1018 mb)
NNE 5.8 mph
(NNE 9 kph)
- 10SM
19:15
Clear
73°F / 23°C 63°F / 17°C 69% 30.06 in
(1018 mb)
Calm - 10SM
18:55
Clear
73°F / 23°C 63°F / 17°C 69% 30.06 in
(1018 mb)
N 3.5 mph
(N 6 kph)
- 10SM
18:35
Clear
73°F / 23°C 63°F / 17°C 69% 30.06 in
(1018 mb)
N 5.8 mph
(N 9 kph)
- 10SM
18:15
Clear
77°F / 25°C 63°F / 17°C 61% 30.06 in
(1018 mb)
N 5.8 mph
(N 9 kph)
- 10SM
17:55
Clear
77°F / 25°C 63°F / 17°C 61% 30.06 in
(1018 mb)
N 4.6 mph
(N 7 kph)
- 10SM
17:35
Clear
81°F / 27°C 63°F / 17°C 54% 30.06 in
(1018 mb)
NE 4.6 mph
(NE 7 kph)
- 10SM
17:15
Clear
84°F / 29°C 61°F / 16°C 45% 30.06 in
(1018 mb)
NE 4.6 mph
(NE 7 kph)
- 10SM
16:55
Clear
88°F / 31°C 59°F / 15°C 38% 30.06 in
(1018 mb)
ENE 5.8 mph
(ENE 9 kph)
- 10SM
16:35
Clear
88°F / 31°C 59°F / 15°C 38% 30.06 in
(1018 mb)
NE 9.2 mph
(NE 15 kph)
- 10SM
16:15
Clear
90°F / 32°C 57°F / 14°C 33% 30.06 in
(1018 mb)
NE 6.9 mph
(NE 11 kph)
- 10SM
15:55
Clear
90°F / 32°C 59°F / 15°C 36% 30.06 in
(1018 mb)
ENE 9.2 mph
(ENE 15 kph)
- 10SM
15:35
Clear
90°F / 32°C 59°F / 15°C 36% 30.06 in
(1018 mb)
ENE 8.1 mph
(ENE 13 kph)
- 10SM
15:15
Clear
91°F / 33°C 59°F / 15°C 34% 30.06 in
(1018 mb)
ENE 8.1 mph
(ENE 13 kph)
- 10SM
14:55
Clear
90°F / 32°C 59°F / 15°C 36% 30.06 in
(1018 mb)
ENE 4.6 mph
(ENE 7 kph)
- 10SM
14:35
Clear
90°F / 32°C 59°F / 15°C 36% 30.06 in
(1018 mb)
Calm - 10SM
14:15
Clear
90°F / 32°C 61°F / 16°C 38% 30.06 in
(1018 mb)
NE 4.6 mph
(NE 7 kph)
- 10SM
13:55
Clear
90°F / 32°C 61°F / 16°C 38% 30.06 in
(1018 mb)
N 3.5 mph
(N 6 kph)
- 10SM
13:35
Clear
90°F / 32°C 61°F / 16°C 38% 30.06 in
(1018 mb)
ENE 3.5 mph
(ENE 6 kph)
- 10SM
13:15
Clear
88°F / 31°C 61°F / 16°C 40% 30.09 in
(1019 mb)
E 6.9 mph
(E 11 kph)
- 10SM
12:55
Clear
90°F / 32°C 61°F / 16°C 38% 30.09 in
(1019 mb)
E 3.5 mph
(E 6 kph)
- 10SM
12:35
Clear
88°F / 31°C 63°F / 17°C 43% 30.09 in
(1019 mb)
E 4.6 mph
(E 7 kph)
- 10SM
12:15
Clear
88°F / 31°C 61°F / 16°C 40% 30.12 in
(1020 mb)
ENE 8.1 mph
(ENE 13 kph)
- 10SM
11:55
Clear
88°F / 31°C 63°F / 17°C 43% 30.12 in
(1020 mb)
N 4.6 mph
(N 7 kph)
- 10SM
11:35
Clear
86°F / 30°C 61°F / 16°C 43% 30.12 in
(1020 mb)
SE 3.5 mph
(SE 6 kph)
- 10SM
11:15
Clear
86°F / 30°C 63°F / 17°C 46% 30.12 in
(1020 mb)
ENE 5.8 mph
(ENE 9 kph)
- 10SM
10:55
Clear
86°F / 30°C 64°F / 18°C 49% 30.12 in
(1020 mb)
N 5.8 mph
(N 9 kph)
- 10SM
10:15
Clear
82°F / 28°C 64°F / 18°C 55% 30.15 in
(1021 mb)
Calm - 10SM
09:55
Clear
82°F / 28°C 64°F / 18°C 55% 30.15 in
(1021 mb)
E 4.6 mph
(E 7 kph)
- 10SM
09:35
Clear
81°F / 27°C 66°F / 19°C 62% 30.15 in
(1021 mb)
ENE 4.6 mph
(ENE 7 kph)
- 10SM
09:15
Clear
81°F / 27°C 66°F / 19°C 62% 30.15 in
(1021 mb)
NE 4.6 mph
(NE 7 kph)
- 10SM
08:55
Clear
79°F / 26°C 68°F / 20°C 70% 30.15 in
(1021 mb)
ENE 4.6 mph
(ENE 7 kph)
- 10SM
08:35
Clear
77°F / 25°C 68°F / 20°C 74% 30.15 in
(1021 mb)
E 3.5 mph
(E 6 kph)
- 10SM
08:15
Clear
73°F / 23°C 68°F / 20°C 83% 30.15 in
(1021 mb)
Calm - 10SM
07:55
Clear
72°F / 22°C 66°F / 19°C 83% 30.15 in
(1021 mb)
Calm - 10SM
07:35
Clear
68°F / 20°C 66°F / 19°C 94% 30.15 in
(1021 mb)
Calm - 10SM
07:15
Clear
Fog And Mist
66°F / 19°C 66°F / 19°C 100% 30.15 in
(1021 mb)
Calm - 4SM
06:55
Obscured
Fog And Mist
64°F / 18°C 63°F / 17°C 94% 30.15 in
(1021 mb)
Calm - 1 1/2SM
06:35
Mostly Cloudy
Fog
61°F / 16°C 61°F / 16°C 100% 30.15 in
(1021 mb)
Calm - M1/4SM
06:15
Mostly Cloudy
Fog
59°F / 15°C 59°F / 15°C 100% 30.15 in
(1021 mb)
Calm - 1/4SM
05:55
Obscured
Fog
61°F / 16°C 61°F / 16°C 100% 30.12 in
(1020 mb)
Calm - M1/4SM
05:35
Mostly Cloudy
Fog
61°F / 16°C 61°F / 16°C 100% 30.12 in
(1020 mb)
Calm - 1/4SM
05:15
Partly Cloudy
Fog And Mist
61°F / 16°C 61°F / 16°C 100% 30.12 in
(1020 mb)
Calm - 1 1/4SM
04:55
Mostly Cloudy
Fog
63°F / 17°C 63°F / 17°C 100% 30.12 in
(1020 mb)
Calm - 1/4SM
03:35
Obscured
Fog
63°F / 17°C 63°F / 17°C 100% 30.09 in
(1019 mb)
Calm - 1/4SM
03:15
Obscured
Fog And Mist
63°F / 17°C 63°F / 17°C 100% 30.09 in
(1019 mb)
Calm - 1 3/4SM
02:55
Clear
Fog And Mist
63°F / 17°C 63°F / 17°C 100% 30.09 in
(1019 mb)
Calm - 5SM
02:35
Clear
63°F / 17°C 63°F / 17°C 100% 30.09 in
(1019 mb)
Calm - 7SM
02:15
Obscured
Fog And Mist
64°F / 18°C 64°F / 18°C 100% 30.09 in
(1019 mb)
Calm - 1 3/4SM
01:55
Clear
64°F / 18°C 63°F / 17°C 94% 30.09 in
(1019 mb)
Calm - 7SM
01:35
Clear
64°F / 18°C 64°F / 18°C 100% 30.09 in
(1019 mb)
NW 3.5 mph
(NW 6 kph)
- 10SM
01:15
Clear
64°F / 18°C 63°F / 17°C 94% 30.09 in
(1019 mb)
Calm - 10SM
00:55
Clear
64°F / 18°C 63°F / 17°C 94% 30.09 in
(1019 mb)
NNW 3.5 mph
(NNW 6 kph)
- 10SM
00:35
Clear
66°F / 19°C 64°F / 18°C 94% 30.09 in
(1019 mb)
Calm - 10SM
00:15
Clear
66°F / 19°C 64°F / 18°C 94% 30.09 in
(1019 mb)
Calm - 10SM
Time Weather Temperature Dewpoint Humidity Pressure Winds Precip Visibility


Weather for websites

WeatherForYou.com, LLC is not responsible for any damages or problems caused by this service. Current weather conditions are obtained from the closest station including government and personal stations which may have varying degrees of accuracy. Weather forecasts are derived from the NOAA NDFD. Like all things, this site belongs to Jesus Christ... He just trusts us to maintain it. If you have any questions or comments email webmaster@weatherforyou.com

Copyright © 2016, WeatherForYou.com LLC. All rights reserved.